Hourly Weather Yicheng

Today, 9 March, Tuesday

Time Temperature Precipitation Wind Pressure Humidity
00:00 +7°C° 0 mm 1 mps 764 mmHg 88%
01:00 +6°C° 0 mm 1 mps 764 mmHg 91%
02:00 +6°C° 0 mm 1 mps 764 mmHg 91%
03:00 +6°C° 0 mm 1 mps 764 mmHg 91%
04:00 +5°C° 0 mm 0 mps 764 mmHg 91%
05:00 +5°C° 0 mm 0 mps 764 mmHg 88%
06:00 +5°C° 0 mm 0 mps 764 mmHg 86%
07:00 +6°C° 0 mm 0 mps 765 mmHg 87%
08:00 +8°C° 0 mm 0 mps 765 mmHg 80%
09:00 +11°C° 0 mm 1 mps 765 mmHg 73%
10:00 +12°C° 0 mm 1 mps 765 mmHg 65%
11:00 +14°C° 0 mm 1 mps 764 mmHg 62%
12:00 +15°C° 0 mm 1 mps 763 mmHg 58%
13:00 +16°C° 0 mm 1 mps 763 mmHg 54%
14:00 +16°C° 0 mm 1 mps 763 mmHg 54%
15:00 +16°C° 0 mm 1 mps 763 mmHg 54%
16:00 +16°C° 0 mm 2 mps 762 mmHg 53%
17:00 +15°C° 0 mm 2 mps 763 mmHg 58%
18:00 +14°C° 0 mm 2 mps 763 mmHg 64%
19:00 +13°C° 0 mm 2 mps 764 mmHg 69%
20:00 +12°C° 0 mm 2 mps 764 mmHg 71%
21:00 +12°C° 0 mm 2 mps 764 mmHg 73%
22:00 +11°C° 0 mm 1 mps 764 mmHg 75%
23:00 +11°C° 0 mm 1 mps 764 mmHg 77%

Tomorrow, 10 March, Wednesday

Time Temperature Precipitation Wind Pressure Humidity
00:00 +11°C° 0 mm 1 mps 764 mmHg 78%
01:00 +10°C° 0 mm 1 mps 764 mmHg 80%
02:00 +10°C° 0 mm 1 mps 763 mmHg 81%
03:00 +10°C° 0 mm 1 mps 763 mmHg 83%
04:00 +9°C° 0 mm 1 mps 763 mmHg 84%
05:00 +10°C° 0 mm 1 mps 763 mmHg 82%
06:00 +10°C° 0 mm 1 mps 764 mmHg 80%
07:00 +11°C° 0 mm 1 mps 764 mmHg 78%
08:00 +12°C° 0 mm 1 mps 764 mmHg 72%
09:00 +14°C° 0 mm 1 mps 763 mmHg 66%
10:00 +15°C° 0 mm 1 mps 763 mmHg 60%
11:00 +16°C° 0 mm 1 mps 763 mmHg 58%
12:00 +16°C° 0 mm 1 mps 762 mmHg 57%
13:00 +16°C° 0 mm 2 mps 761 mmHg 55%
14:00 +16°C° 0 mm 2 mps 761 mmHg 58%
15:00 +16°C° 0 mm 2 mps 760 mmHg 61%
16:00 +15°C° 0 mm 2 mps 760 mmHg 64%
17:00 +14°C° 0.5 mm 2 mps 760 mmHg 71%
18:00 +13°C° 0.5 mm 1 mps 761 mmHg 79%
19:00 +11°C° 0.5 mm 0 mps 761 mmHg 87%
20:00 +11°C° 0.4 mm 0 mps 762 mmHg 88%
21:00 +12°C° 0.4 mm 1 mps 762 mmHg 90%
22:00 +12°C° 0.4 mm 1 mps 762 mmHg 92%
23:00 +12°C° 0 mm 1 mps 762 mmHg 92%

Day after tomorrow, 11 March, Thursday

Time Temperature Precipitation Wind Pressure Humidity
00:00 +12°C° 0 mm 1 mps 761 mmHg 92%
01:00 +12°C° 0 mm 1 mps 761 mmHg 92%
02:00 +12°C° 0 mm 2 mps 761 mmHg 92%
03:00 +12°C° 0 mm 2 mps 761 mmHg 92%
04:00 +12°C° 0 mm 2 mps 761 mmHg 92%
05:00 +12°C° 0 mm 2 mps 761 mmHg 91%
06:00 +12°C° 0 mm 2 mps 762 mmHg 91%
07:00 +12°C° 0 mm 2 mps 762 mmHg 90%
08:00 +12°C° 0 mm 3 mps 762 mmHg 84%
09:00 +14°C° 0 mm 3 mps 762 mmHg 77%
10:00 +16°C° 0 mm 3 mps 762 mmHg 71%
11:00 +17°C° 0 mm 2 mps 762 mmHg 68%
12:00 +17°C° 0 mm 2 mps 761 mmHg 65%
13:00 +18°C° 0 mm 2 mps 760 mmHg 63%
14:00 +18°C° 0 mm 2 mps 760 mmHg 62%
15:00 +18°C° 0 mm 2 mps 760 mmHg 62%
16:00 +20°C° 0 mm 1 mps 760 mmHg 62%
17:00 +19°C° 0 mm 1 mps 760 mmHg 66%
18:00 +18°C° 0 mm 1 mps 761 mmHg 71%
19:00 +16°C° 0 mm 1 mps 761 mmHg 76%
20:00 +15°C° 0 mm 1 mps 761 mmHg 79%
21:00 +15°C° 0 mm 1 mps 762 mmHg 81%
22:00 +13°C° 0 mm 0 mps 762 mmHg 84%
23:00 +14°C° 0 mm 1 mps 762 mmHg 85%

12 March, Friday

Time Temperature Precipitation Wind Pressure Humidity
00:00 +14°C° 0 mm 1 mps 762 mmHg 86%
01:00 +14°C° 0 mm 1 mps 762 mmHg 87%
02:00 +13°C° 0 mm 1 mps 761 mmHg 89%
03:00 +13°C° 0 mm 1 mps 761 mmHg 90%
04:00 +11°C° 0 mm 0 mps 761 mmHg 92%
05:00 +12°C° 0 mm 0 mps 761 mmHg 90%
06:00 +12°C° 0 mm 0 mps 762 mmHg 88%
07:00 +13°C° 0 mm 0 mps 762 mmHg 87%
08:00 +15°C° 0 mm 1 mps 762 mmHg 79%
09:00 +18°C° 0 mm 1 mps 762 mmHg 72%
10:00 +20°C° 0 mm 1 mps 762 mmHg 65%
11:00 +21°C° 0 mm 1 mps 762 mmHg 62%
12:00 +21°C° 0 mm 1 mps 761 mmHg 59%
13:00 +22°C° 0 mm 1 mps 760 mmHg 55%
14:00 +22°C° 0 mm 1 mps 760 mmHg 56%
15:00 +22°C° 0 mm 1 mps 760 mmHg 56%
16:00 +22°C° 0 mm 1 mps 759 mmHg 56%
17:00 +20°C° 0 mm 2 mps 760 mmHg 60%
18:00 +19°C° 0 mm 2 mps 760 mmHg 64%
19:00 +18°C° 0 mm 2 mps 760 mmHg 68%
20:00 +18°C° 0 mm 2 mps 760 mmHg 70%
21:00 +17°C° 0 mm 2 mps 760 mmHg 73%
22:00 +16°C° 0 mm 2 mps 760 mmHg 75%
23:00 +16°C° 0 mm 2 mps 760 mmHg 77%

13 March, Saturday

Time Temperature Precipitation Wind Pressure Humidity
00:00 +15°C° 0 mm 1 mps 760 mmHg 79%
01:00 +15°C° 0 mm 1 mps 760 mmHg 81%
02:00 +15°C° 0 mm 1 mps 759 mmHg 83%
03:00 +14°C° 0 mm 1 mps 759 mmHg 85%
04:00 +14°C° 0 mm 1 mps 759 mmHg 87%
05:00 +14°C° 0 mm 1 mps 759 mmHg 86%
06:00 +15°C° 0 mm 1 mps 760 mmHg 84%
07:00 +15°C° 0 mm 1 mps 760 mmHg 83%
08:00 +17°C° 0 mm 2 mps 760 mmHg 76%
09:00 +19°C° 0 mm 2 mps 759 mmHg 69%
10:00 +21°C° 0 mm 3 mps 759 mmHg 63%
11:00 +22°C° 0 mm 3 mps 758 mmHg 59%
12:00 +24°C° 0 mm 3 mps 758 mmHg 55%
13:00 +25°C° 0 mm 4 mps 757 mmHg 52%
14:00 +25°C° 0 mm 4 mps 756 mmHg 54%
15:00 +25°C° 0 mm 5 mps 756 mmHg 57%
16:00 +23°C° 0 mm 5 mps 755 mmHg 59%
17:00 +22°C° 0 mm 5 mps 756 mmHg 65%
18:00 +20°C° 0 mm 4 mps 756 mmHg 70%
19:00 +19°C° 0 mm 4 mps 756 mmHg 76%
20:00 +19°C° 0 mm 4 mps 756 mmHg 78%
21:00 +18°C° 0 mm 4 mps 756 mmHg 80%
22:00 +18°C° 0 mm 4 mps 756 mmHg 82%
23:00 +18°C° 0 mm 4 mps 756 mmHg 81%

14 March, Sunday

Time Temperature Precipitation Wind Pressure Humidity
00:00 +18°C° 0 mm 4 mps 755 mmHg 81%
01:00 +17°C° 0 mm 5 mps 755 mmHg 81%
02:00 +17°C° 0 mm 5 mps 755 mmHg 84%
03:00 +16°C° 0 mm 5 mps 754 mmHg 88%
04:00 +15°C° 0 mm 5 mps 754 mmHg 91%
05:00 +16°C° 0 mm 5 mps 754 mmHg 90%
06:00 +16°C° 0 mm 6 mps 754 mmHg 89%
07:00 +16°C° 0 mm 6 mps 754 mmHg 88%
08:00 +18°C° 0 mm 7 mps 754 mmHg 82%
09:00 +20°C° 0 mm 7 mps 754 mmHg 76%
10:00 +22°C° 0 mm 7 mps 754 mmHg 70%
11:00 +23°C° 0 mm 7 mps 753 mmHg 67%
12:00 +24°C° 0 mm 7 mps 752 mmHg 64%
13:00 +26°C° 0 mm 6 mps 751 mmHg 60%
14:00 +26°C° 0 mm 6 mps 751 mmHg 61%
15:00 +26°C° 0 mm 6 mps 750 mmHg 61%
16:00 +26°C° 0 mm 5 mps 750 mmHg 62%
17:00 +25°C° 0 mm 5 mps 750 mmHg 68%
18:00 +22°C° 0 mm 4 mps 750 mmHg 74%
19:00 +21°C° 0 mm 4 mps 750 mmHg 80%
20:00 +21°C° 0 mm 4 mps 750 mmHg 83%
21:00 +20°C° 0 mm 4 mps 750 mmHg 86%
22:00 +20°C° 0 mm 4 mps 750 mmHg 89%
23:00 +20°C° 0 mm 4 mps 750 mmHg 90%
Show more